Time,TemperatureF,DewpointF,PressureIn,WindDirection,WindDirectionDegrees,WindSpeedMPH,WindSpeedGustMPH,Humidity,HourlyPrecipIn,Conditions,Clouds,dailyrainin,SoftwareType,DateUTC
2013-07-25 00:03:00,75.6,72.5,29.39,SE,135,0.0,0.7,88,0.00,,,0.01,fowsr,2013-07-25 04:03:00,
2013-07-25 00:08:00,75.2,72.2,29.39,SE,135,0.0,0.0,88,0.00,,,0.01,fowsr,2013-07-25 04:08:00,
2013-07-25 00:13:00,75.0,72.3,29.39,SE,135,0.0,0.0,89,0.00,,,0.01,fowsr,2013-07-25 04:13:00,
2013-07-25 00:18:00,74.8,72.4,29.39,SE,135,0.0,0.0,90,0.00,,,0.01,fowsr,2013-07-25 04:18:00,
2013-07-25 00:23:00,74.7,72.2,29.39,SE,135,0.0,1.6,90,0.00,,,0.01,fowsr,2013-07-25 04:23:00,
2013-07-25 00:28:00,74.7,72.2,29.39,SE,135,0.0,0.7,90,0.00,,,0.01,fowsr,2013-07-25 04:28:00,
2013-07-25 00:33:00,74.5,71.7,29.40,East,90,0.0,0.7,89,0.00,,,0.01,fowsr,2013-07-25 04:33:00,
2013-07-25 00:38:00,74.5,71.7,29.41,East,90,0.0,0.0,89,0.00,,,0.01,fowsr,2013-07-25 04:38:00,
2013-07-25 00:43:00,74.5,71.7,29.41,SE,135,0.0,0.0,89,0.00,,,0.01,fowsr,2013-07-25 04:43:00,
2013-07-25 00:48:00,74.5,71.7,29.41,SE,135,0.0,0.0,89,0.00,,,0.01,fowsr,2013-07-25 04:48:00,
2013-07-25 00:53:00,74.7,71.9,29.41,SE,135,0.0,0.0,89,0.00,,,0.01,fowsr,2013-07-25 04:53:00,
2013-07-25 00:58:00,74.8,72.1,29.41,SE,135,0.0,0.0,89,0.00,,,0.01,fowsr,2013-07-25 04:58:00,
2013-07-25 01:03:00,74.7,72.2,29.41,SE,135,0.0,0.0,90,0.00,,,0.01,fowsr,2013-07-25 05:03:00,
2013-07-25 01:08:00,74.8,72.4,29.41,SE,135,0.0,0.0,90,0.00,,,0.01,fowsr,2013-07-25 05:08:00,
2013-07-25 01:13:00,74.8,72.6,29.41,SE,135,0.0,0.0,91,0.00,,,0.01,fowsr,2013-07-25 05:13:00,
2013-07-25 01:18:00,74.7,72.4,29.41,SE,135,0.0,0.0,91,0.00,,,0.01,fowsr,2013-07-25 05:18:00,
2013-07-25 01:23:00,74.8,72.6,29.40,SE,135,0.0,0.0,91,0.00,,,0.01,fowsr,2013-07-25 05:23:00,
2013-07-25 01:28:00,74.8,72.9,29.40,SE,135,0.0,0.0,92,0.00,,,0.01,fowsr,2013-07-25 05:28:00,
2013-07-25 01:33:00,74.7,72.7,29.41,SE,135,0.0,0.0,92,0.00,,,0.01,fowsr,2013-07-25 05:33:00,
2013-07-25 01:38:00,74.5,72.5,29.40,SE,135,0.7,2.2,92,0.01,,,0.02,fowsr,2013-07-25 05:38:00,
2013-07-25 01:43:00,74.3,72.3,29.41,SE,135,0.0,0.0,92,0.01,,,0.02,fowsr,2013-07-25 05:43:00,
2013-07-25 01:48:00,74.1,72.4,29.40,SE,135,0.0,0.7,93,0.01,,,0.02,fowsr,2013-07-25 05:48:00,
2013-07-25 01:53:00,74.1,72.4,29.39,SE,135,0.0,0.0,93,0.01,,,0.02,fowsr,2013-07-25 05:53:00,
2013-07-25 01:58:00,73.9,72.2,29.39,SE,135,0.0,0.0,93,0.01,,,0.02,fowsr,2013-07-25 05:58:00,
2013-07-25 02:03:00,73.8,72.1,29.39,SE,135,0.0,0.0,93,0.01,,,0.02,fowsr,2013-07-25 06:03:00,
2013-07-25 02:08:00,73.8,72.3,29.39,SE,135,0.0,0.7,94,0.01,,,0.02,fowsr,2013-07-25 06:08:00,
2013-07-25 02:13:00,73.6,72.1,29.39,SE,135,0.0,0.0,94,0.01,,,0.02,fowsr,2013-07-25 06:13:00,
2013-07-25 02:18:00,73.6,72.1,29.38,SE,135,0.0,0.0,94,0.01,,,0.02,fowsr,2013-07-25 06:18:00,
2013-07-25 02:23:00,73.4,71.9,29.38,SE,135,0.0,0.0,94,0.01,,,0.02,fowsr,2013-07-25 06:23:00,
2013-07-25 02:28:00,73.4,71.9,29.38,SE,135,0.0,0.0,94,0.02,,,0.04,fowsr,2013-07-25 06:28:00,
2013-07-25 02:33:00,73.2,71.8,29.38,SE,135,0.0,0.0,94,0.02,,,0.04,fowsr,2013-07-25 06:33:00,
2013-07-25 02:38:00,73.2,71.8,29.38,SE,135,0.0,0.0,94,0.01,,,0.04,fowsr,2013-07-25 06:38:00,
2013-07-25 02:43:00,73.0,71.6,29.38,SE,135,0.0,0.0,94,0.01,,,0.04,fowsr,2013-07-25 06:43:00,
2013-07-25 02:48:00,73.0,71.6,29.37,SE,135,0.0,0.0,94,0.01,,,0.04,fowsr,2013-07-25 06:48:00,
2013-07-25 02:58:00,72.7,71.2,29.38,NW,315,0.0,0.0,94,0.01,,,0.04,fowsr,2013-07-25 06:58:00,
2013-07-25 03:03:00,72.3,70.9,29.38,SE,135,0.0,1.6,94,0.01,,,0.04,fowsr,2013-07-25 07:03:00,
2013-07-25 03:08:00,72.0,70.5,29.38,South,180,0.0,0.7,94,0.01,,,0.04,fowsr,2013-07-25 07:08:00,
2013-07-25 03:13:00,71.8,70.1,29.38,South,180,0.0,0.0,93,0.01,,,0.04,fowsr,2013-07-25 07:13:00,
2013-07-25 03:18:00,71.6,69.9,29.37,NE,45,0.0,0.0,93,0.01,,,0.04,fowsr,2013-07-25 07:18:00,
2013-07-25 03:23:00,71.2,69.6,29.36,West,270,0.0,0.0,93,0.01,,,0.04,fowsr,2013-07-25 07:23:00,
2013-07-25 03:28:00,71.1,69.4,29.36,West,270,0.0,0.0,93,0.01,,,0.04,fowsr,2013-07-25 07:28:00,
2013-07-25 03:33:00,70.9,69.2,29.36,NE,45,0.0,0.0,93,0.00,,,0.04,fowsr,2013-07-25 07:33:00,
2013-07-25 03:38:00,70.7,69.0,29.36,NE,45,0.0,0.0,93,0.00,,,0.04,fowsr,2013-07-25 07:38:00,
2013-07-25 03:43:00,70.7,69.0,29.36,NE,45,0.0,0.0,93,0.00,,,0.04,fowsr,2013-07-25 07:43:00,
2013-07-25 03:48:00,70.5,69.1,29.36,NE,45,0.0,0.0,94,0.00,,,0.04,fowsr,2013-07-25 07:48:00,
2013-07-25 03:53:00,70.5,69.1,29.36,NE,45,0.0,0.0,94,0.00,,,0.04,fowsr,2013-07-25 07:53:00,
2013-07-25 03:58:00,70.5,69.1,29.36,NE,45,0.0,0.0,94,0.00,,,0.04,fowsr,2013-07-25 07:58:00,
2013-07-25 04:03:00,70.5,69.1,29.37,NE,45,0.0,0.0,94,0.00,,,0.04,fowsr,2013-07-25 08:03:00,
2013-07-25 04:08:00,70.3,69.2,29.37,NE,45,0.0,0.0,95,0.00,,,0.04,fowsr,2013-07-25 08:08:00,
2013-07-25 04:13:00,70.3,69.2,29.37,NE,45,0.0,0.0,95,0.00,,,0.04,fowsr,2013-07-25 08:13:00,
2013-07-25 04:18:00,70.3,69.2,29.37,NE,45,0.0,0.0,95,0.00,,,0.04,fowsr,2013-07-25 08:18:00,
2013-07-25 04:23:00,70.3,69.2,29.37,NE,45,0.0,0.0,95,0.00,,,0.04,fowsr,2013-07-25 08:23:00,
2013-07-25 04:28:00,70.3,69.2,29.37,NE,45,0.0,0.0,95,0.00,,,0.04,fowsr,2013-07-25 08:28:00,
2013-07-25 04:33:00,70.3,69.2,29.38,NE,45,0.0,0.0,95,0.00,,,0.04,fowsr,2013-07-25 08:33:00,
2013-07-25 04:38:00,70.3,69.4,29.38,NE,45,0.0,0.0,96,0.00,,,0.04,fowsr,2013-07-25 08:38:00,
2013-07-25 04:43:00,70.5,69.6,29.39,NE,45,0.0,0.0,96,0.00,,,0.04,fowsr,2013-07-25 08:43:00,
2013-07-25 04:48:00,70.7,69.8,29.38,South,180,0.0,0.7,96,0.00,,,0.04,fowsr,2013-07-25 08:48:00,
2013-07-25 04:53:00,70.7,69.8,29.38,NE,45,0.0,0.7,96,0.00,,,0.04,fowsr,2013-07-25 08:53:00,
2013-07-25 04:58:00,70.9,70.2,29.38,NE,45,0.0,0.0,97,0.00,,,0.04,fowsr,2013-07-25 08:58:00,
2013-07-25 05:03:00,71.1,70.4,29.38,NW,315,0.0,0.0,97,0.00,,,0.04,fowsr,2013-07-25 09:03:00,
2013-07-25 05:08:00,71.1,70.4,29.38,North,0,0.0,0.7,97,0.00,,,0.04,fowsr,2013-07-25 09:08:00,
2013-07-25 05:13:00,71.1,70.4,29.38,West,270,0.0,0.7,97,0.00,,,0.04,fowsr,2013-07-25 09:13:00,
2013-07-25 05:18:00,71.1,70.4,29.38,East,90,0.0,0.7,97,0.00,,,0.04,fowsr,2013-07-25 09:18:00,
2013-07-25 05:23:00,71.1,70.4,29.38,East,90,0.0,0.0,97,0.00,,,0.04,fowsr,2013-07-25 09:23:00,
2013-07-25 05:28:00,71.1,70.4,29.38,East,90,0.0,0.0,97,0.00,,,0.04,fowsr,2013-07-25 09:28:00,
2013-07-25 05:33:00,71.1,70.4,29.39,North,0,0.0,0.0,97,0.00,,,0.04,fowsr,2013-07-25 09:33:00,
2013-07-25 05:38:00,71.1,70.4,29.38,SW,225,0.0,0.0,97,0.00,,,0.04,fowsr,2013-07-25 09:38:00,
2013-07-25 05:43:00,71.1,70.4,29.39,SW,225,0.0,0.0,97,0.00,,,0.04,fowsr,2013-07-25 09:43:00,
2013-07-25 05:48:00,71.1,70.4,29.39,SW,225,0.0,0.0,97,0.00,,,0.04,fowsr,2013-07-25 09:48:00,
2013-07-25 05:53:00,71.1,70.4,29.39,NW,315,0.0,0.0,97,0.00,,,0.04,fowsr,2013-07-25 09:53:00,
2013-07-25 05:58:00,71.1,70.4,29.39,West,270,0.0,0.7,97,0.00,,,0.04,fowsr,2013-07-25 09:58:00,
2013-07-25 06:03:00,71.1,70.4,29.39,SW,225,0.0,0.0,97,0.00,,,0.04,fowsr,2013-07-25 10:03:00,
2013-07-25 06:08:00,70.9,69.9,29.39,SE,135,0.0,0.0,96,0.00,,,0.04,fowsr,2013-07-25 10:08:00,
2013-07-25 06:13:00,70.9,69.9,29.40,SW,225,0.0,0.0,96,0.00,,,0.04,fowsr,2013-07-25 10:13:00,
2013-07-25 06:18:00,70.9,69.9,29.40,East,90,0.0,0.0,96,0.00,,,0.04,fowsr,2013-07-25 10:18:00,
2013-07-25 06:23:00,70.9,69.9,29.40,SW,225,0.0,0.7,96,0.00,,,0.04,fowsr,2013-07-25 10:23:00,
2013-07-25 06:28:00,70.9,69.9,29.40,NW,315,0.0,0.7,96,0.00,,,0.04,fowsr,2013-07-25 10:28:00,
2013-07-25 06:33:00,71.1,70.1,29.40,South,180,0.0,0.0,96,0.00,,,0.04,fowsr,2013-07-25 10:33:00,
2013-07-25 06:38:00,71.1,70.1,29.40,NW,315,0.0,0.7,96,0.00,,,0.04,fowsr,2013-07-25 10:38:00,
2013-07-25 06:43:00,70.9,69.9,29.40,SW,225,0.0,0.7,96,0.00,,,0.04,fowsr,2013-07-25 10:43:00,
2013-07-25 06:48:00,70.9,69.9,29.40,West,270,0.0,0.0,96,0.00,,,0.04,fowsr,2013-07-25 10:48:00,
2013-07-25 06:53:00,70.9,69.9,29.40,NW,315,0.0,0.0,96,0.00,,,0.04,fowsr,2013-07-25 10:53:00,
2013-07-25 06:58:00,70.9,69.9,29.41,West,270,0.0,0.0,96,0.00,,,0.04,fowsr,2013-07-25 10:58:00,
2013-07-25 07:03:00,70.9,69.9,29.41,SW,225,0.0,0.0,96,0.00,,,0.04,fowsr,2013-07-25 11:03:00,
2013-07-25 07:08:00,70.9,69.9,29.41,West,270,0.0,0.0,96,0.00,,,0.04,fowsr,2013-07-25 11:08:00,
2013-07-25 07:13:00,70.7,69.5,29.42,NW,315,0.0,0.0,95,0.00,,,0.04,fowsr,2013-07-25 11:13:00,
2013-07-25 07:18:00,70.7,69.5,29.42,NW,315,0.0,0.0,95,0.00,,,0.04,fowsr,2013-07-25 11:18:00,
2013-07-25 07:23:00,70.7,69.5,29.42,NW,315,0.0,0.0,95,0.00,,,0.04,fowsr,2013-07-25 11:23:00,
2013-07-25 07:28:00,70.7,69.5,29.43,NNW,337,0.0,0.0,95,0.00,,,0.04,fowsr,2013-07-25 11:28:00,
2013-07-25 07:33:00,70.7,69.5,29.42,SW,225,0.0,0.0,95,0.00,,,0.04,fowsr,2013-07-25 11:33:00,
2013-07-25 07:38:00,70.7,69.5,29.43,NW,315,0.0,0.0,95,0.00,,,0.04,fowsr,2013-07-25 11:38:00,
2013-07-25 07:43:00,70.7,69.3,29.43,NW,315,0.0,0.0,94,0.00,,,0.04,fowsr,2013-07-25 11:43:00,
2013-07-25 07:48:00,70.7,69.3,29.43,SE,135,0.0,0.0,94,0.00,,,0.04,fowsr,2013-07-25 11:48:00,
2013-07-25 07:58:00,70.7,69.3,29.44,SE,135,0.0,0.0,94,0.00,,,0.04,fowsr,2013-07-25 11:58:00,
2013-07-25 08:03:00,70.7,69.3,29.44,SE,135,0.0,0.0,94,0.00,,,0.04,fowsr,2013-07-25 12:03:00,
2013-07-25 08:08:00,70.7,69.3,29.44,NE,45,0.0,0.0,94,0.00,,,0.04,fowsr,2013-07-25 12:08:00,
2013-07-25 08:13:00,70.7,69.0,29.44,North,0,0.0,0.0,93,0.00,,,0.04,fowsr,2013-07-25 12:13:00,
2013-07-25 08:18:00,70.5,68.8,29.43,North,0,0.0,0.0,93,0.00,,,0.04,fowsr,2013-07-25 12:18:00,
2013-07-25 08:23:00,70.5,68.8,29.44,NW,315,0.0,0.0,93,0.00,,,0.04,fowsr,2013-07-25 12:23:00,
2013-07-25 08:28:00,70.5,68.6,29.44,West,270,0.0,0.0,92,0.00,,,0.04,fowsr,2013-07-25 12:28:00,
2013-07-25 08:33:00,70.7,68.8,29.44,North,0,0.0,0.0,92,0.00,,,0.04,fowsr,2013-07-25 12:33:00,
2013-07-25 08:38:00,70.7,68.8,29.44,North,0,0.0,0.0,92,0.00,,,0.04,fowsr,2013-07-25 12:38:00,
2013-07-25 08:43:00,70.9,69.0,29.44,West,270,0.0,0.0,92,0.00,,,0.04,fowsr,2013-07-25 12:43:00,
2013-07-25 08:48:00,71.1,68.9,29.44,NW,315,0.0,0.0,91,0.00,,,0.04,fowsr,2013-07-25 12:48:00,
2013-07-25 08:53:00,71.1,68.9,29.44,NW,315,0.0,0.0,91,0.00,,,0.04,fowsr,2013-07-25 12:53:00,
2013-07-25 08:58:00,71.2,69.1,29.44,SE,135,0.0,0.0,91,0.00,,,0.04,fowsr,2013-07-25 12:58:00,
2013-07-25 09:03:00,71.6,69.2,29.45,NE,45,0.0,0.7,90,0.00,,,0.04,fowsr,2013-07-25 13:03:00,
2013-07-25 09:08:00,71.6,69.2,29.45,SE,135,0.0,0.0,90,0.00,,,0.04,fowsr,2013-07-25 13:08:00,
2013-07-25 09:13:00,71.8,69.3,29.45,East,90,0.0,0.0,90,0.00,,,0.04,fowsr,2013-07-25 13:13:00,
2013-07-25 09:18:00,72.0,69.3,29.45,NW,315,0.0,0.0,89,0.00,,,0.04,fowsr,2013-07-25 13:18:00,
2013-07-25 09:23:00,71.8,69.1,29.46,East,90,0.0,0.0,89,0.00,,,0.04,fowsr,2013-07-25 13:23:00,
2013-07-25 09:28:00,72.0,69.3,29.46,NE,45,0.0,0.0,89,0.00,,,0.04,fowsr,2013-07-25 13:28:00,
2013-07-25 09:33:00,72.0,69.3,29.46,NE,45,0.0,0.0,89,0.00,,,0.04,fowsr,2013-07-25 13:33:00,
2013-07-25 09:38:00,72.1,69.4,29.46,SW,225,0.0,0.0,89,0.00,,,0.04,fowsr,2013-07-25 13:38:00,
2013-07-25 09:43:00,72.1,69.4,29.46,West,270,0.0,0.0,89,0.00,,,0.04,fowsr,2013-07-25 13:43:00,
2013-07-25 09:48:00,72.3,69.6,29.47,East,90,0.0,0.0,89,0.00,,,0.04,fowsr,2013-07-25 13:48:00,
2013-07-25 09:53:00,72.3,69.4,29.46,NW,315,0.0,0.7,88,0.00,,,0.04,fowsr,2013-07-25 13:53:00,
2013-07-25 09:58:00,72.3,69.4,29.47,SW,225,0.0,0.0,88,0.00,,,0.04,fowsr,2013-07-25 13:58:00,
2013-07-25 10:03:00,72.3,69.4,29.47,SE,135,0.0,0.7,88,0.00,,,0.04,fowsr,2013-07-25 14:03:00,
2013-07-25 10:08:00,72.3,69.4,29.47,South,180,0.0,0.7,88,0.00,,,0.04,fowsr,2013-07-25 14:08:00,
2013-07-25 10:13:00,72.5,69.5,29.47,NW,315,0.0,0.7,88,0.00,,,0.04,fowsr,2013-07-25 14:13:00,
2013-07-25 10:18:00,72.3,69.1,29.47,North,0,0.0,0.0,87,0.00,,,0.04,fowsr,2013-07-25 14:18:00,
2013-07-25 10:23:00,72.3,69.1,29.48,East,90,0.0,0.7,87,0.00,,,0.04,fowsr,2013-07-25 14:23:00,
2013-07-25 10:28:00,72.3,69.1,29.47,East,90,0.0,0.0,87,0.00,,,0.04,fowsr,2013-07-25 14:28:00,
2013-07-25 10:33:00,72.3,69.4,29.48,NE,45,0.0,0.7,88,0.00,,,0.04,fowsr,2013-07-25 14:33:00,
2013-07-25 10:38:00,72.5,69.5,29.48,East,90,0.0,0.0,88,0.00,,,0.04,fowsr,2013-07-25 14:38:00,
2013-07-25 10:43:00,72.5,69.3,29.47,NW,315,0.0,0.7,87,0.00,,,0.04,fowsr,2013-07-25 14:43:00,
2013-07-25 10:48:00,72.9,69.9,29.48,SW,225,0.0,0.0,88,0.00,,,0.04,fowsr,2013-07-25 14:48:00,
2013-07-25 10:53:00,73.2,70.2,29.48,SE,135,0.0,0.7,88,0.00,,,0.04,fowsr,2013-07-25 14:53:00,
2013-07-25 10:58:00,73.6,70.6,29.48,SW,225,0.0,0.7,88,0.00,,,0.04,fowsr,2013-07-25 14:58:00,
2013-07-25 11:03:00,73.9,70.7,29.48,West,270,0.0,0.7,87,0.00,,,0.04,fowsr,2013-07-25 15:03:00,
2013-07-25 11:08:00,74.1,70.6,29.48,West,270,0.0,0.0,86,0.00,,,0.04,fowsr,2013-07-25 15:08:00,
2013-07-25 11:13:00,74.5,70.9,29.47,East,90,0.7,1.6,86,0.00,,,0.04,fowsr,2013-07-25 15:13:00,
2013-07-25 11:18:00,74.7,70.8,29.48,East,90,0.0,0.7,85,0.00,,,0.04,fowsr,2013-07-25 15:18:00,
2013-07-25 11:23:00,75.0,71.2,29.48,West,270,0.0,0.7,85,0.00,,,0.04,fowsr,2013-07-25 15:23:00,
2013-07-25 11:28:00,75.2,70.8,29.49,SE,135,0.0,1.6,83,0.00,,,0.04,fowsr,2013-07-25 15:28:00,
2013-07-25 11:33:00,75.2,70.8,29.49,West,270,0.0,0.7,83,0.00,,,0.04,fowsr,2013-07-25 15:33:00,
2013-07-25 11:38:00,75.2,70.8,29.49,SE,135,0.0,0.7,83,0.00,,,0.04,fowsr,2013-07-25 15:38:00,
2013-07-25 11:43:00,75.2,70.8,29.49,West,270,0.0,0.7,83,0.00,,,0.04,fowsr,2013-07-25 15:43:00,
2013-07-25 11:48:00,75.4,71.0,29.49,North,0,0.0,0.7,83,0.00,,,0.04,fowsr,2013-07-25 15:48:00,
2013-07-25 11:53:00,75.4,71.0,29.49,South,180,0.0,0.7,83,0.00,,,0.04,fowsr,2013-07-25 15:53:00,
2013-07-25 11:58:00,75.6,71.2,29.49,North,0,0.0,0.0,83,0.00,,,0.04,fowsr,2013-07-25 15:58:00,
2013-07-25 12:03:00,75.6,71.2,29.50,NW,315,0.0,0.0,83,0.00,,,0.04,fowsr,2013-07-25 16:03:00,
2013-07-25 12:13:00,75.6,70.9,29.49,North,0,0.0,0.7,82,0.00,,,0.04,fowsr,2013-07-25 16:13:00,
2013-07-25 12:18:00,75.6,70.9,29.50,North,0,0.0,0.7,82,0.00,,,0.04,fowsr,2013-07-25 16:18:00,
2013-07-25 12:23:00,76.1,71.4,29.49,West,270,0.0,0.7,82,0.00,,,0.04,fowsr,2013-07-25 16:23:00,
2013-07-25 12:28:00,76.3,71.6,29.50,NW,315,0.0,0.7,82,0.00,,,0.04,fowsr,2013-07-25 16:28:00,
2013-07-25 12:33:00,76.3,71.6,29.49,North,0,0.0,0.7,82,0.00,,,0.04,fowsr,2013-07-25 16:33:00,
2013-07-25 12:38:00,76.5,71.8,29.49,East,90,0.0,0.0,82,0.00,,,0.04,fowsr,2013-07-25 16:38:00,
2013-07-25 12:43:00,76.8,72.1,29.49,SE,135,0.0,0.7,82,0.00,,,0.04,fowsr,2013-07-25 16:43:00,
2013-07-25 12:48:00,77.2,71.9,29.49,North,0,0.0,0.7,80,0.00,,,0.04,fowsr,2013-07-25 16:48:00,
2013-07-25 12:53:00,77.4,72.1,29.48,NW,315,0.0,0.7,80,0.00,,,0.04,fowsr,2013-07-25 16:53:00,
2013-07-25 12:58:00,77.7,72.4,29.49,NW,315,0.7,1.6,80,0.00,,,0.04,fowsr,2013-07-25 16:58:00,
2013-07-25 13:03:00,77.9,72.3,29.49,West,270,0.0,0.7,79,0.00,,,0.04,fowsr,2013-07-25 17:03:00,
2013-07-25 13:08:00,78.1,72.2,29.49,SE,135,0.0,0.7,78,0.00,,,0.04,fowsr,2013-07-25 17:08:00,
2013-07-25 13:13:00,78.3,72.0,29.48,NW,315,0.0,0.7,77,0.00,,,0.04,fowsr,2013-07-25 17:13:00,
2013-07-25 13:18:00,78.3,72.0,29.49,SE,135,0.0,0.0,77,0.00,,,0.04,fowsr,2013-07-25 17:18:00,
2013-07-25 13:23:00,78.4,72.5,29.49,SE,135,0.0,0.0,78,0.00,,,0.04,fowsr,2013-07-25 17:23:00,
2013-07-25 13:28:00,78.4,72.2,29.49,West,270,0.0,0.7,77,0.00,,,0.04,fowsr,2013-07-25 17:28:00,
2013-07-25 13:33:00,78.4,72.2,29.49,West,270,0.0,0.0,77,0.00,,,0.04,fowsr,2013-07-25 17:33:00,
2013-07-25 13:38:00,78.4,72.2,29.49,North,0,0.0,0.0,77,0.00,,,0.04,fowsr,2013-07-25 17:38:00,
2013-07-25 13:43:00,78.3,72.0,29.49,North,0,0.0,0.7,77,0.00,,,0.04,fowsr,2013-07-25 17:43:00,
2013-07-25 13:48:00,78.1,72.2,29.48,North,0,0.0,0.7,78,0.00,,,0.04,fowsr,2013-07-25 17:48:00,
2013-07-25 13:53:00,77.9,72.0,29.49,NW,315,0.0,0.0,78,0.00,,,0.04,fowsr,2013-07-25 17:53:00,
2013-07-25 13:58:00,77.9,72.3,29.49,SE,135,0.0,1.6,79,0.00,,,0.04,fowsr,2013-07-25 17:58:00,
2013-07-25 14:03:00,77.9,72.3,29.49,NE,45,0.7,1.6,79,0.00,,,0.04,fowsr,2013-07-25 18:03:00,
2013-07-25 14:08:00,78.1,72.5,29.49,NW,315,0.0,0.0,79,0.00,,,0.04,fowsr,2013-07-25 18:08:00,
2013-07-25 14:13:00,78.3,72.6,29.48,East,90,0.0,0.7,79,0.00,,,0.04,fowsr,2013-07-25 18:13:00,
2013-07-25 14:18:00,78.4,72.5,29.48,North,0,0.0,0.7,78,0.00,,,0.04,fowsr,2013-07-25 18:18:00,
2013-07-25 14:23:00,78.6,73.0,29.48,East,90,0.0,0.7,79,0.00,,,0.04,fowsr,2013-07-25 18:23:00,
2013-07-25 14:28:00,78.8,72.2,29.48,North,0,0.0,0.7,76,0.00,,,0.04,fowsr,2013-07-25 18:28:00,
2013-07-25 14:33:00,78.8,72.2,29.49,NW,315,0.0,0.7,76,0.00,,,0.04,fowsr,2013-07-25 18:33:00,
2013-07-25 14:38:00,78.6,72.1,29.49,NW,315,0.0,0.7,76,0.00,,,0.04,fowsr,2013-07-25 18:38:00,
2013-07-25 14:43:00,78.4,71.9,29.49,SW,225,0.0,0.7,76,0.00,,,0.04,fowsr,2013-07-25 18:43:00,
2013-07-25 14:48:00,78.4,72.2,29.49,East,90,0.0,1.6,77,0.00,,,0.04,fowsr,2013-07-25 18:48:00,
2013-07-25 14:53:00,78.6,72.4,29.50,East,90,0.0,1.6,77,0.00,,,0.04,fowsr,2013-07-25 18:53:00,
2013-07-25 14:58:00,78.6,72.4,29.49,West,270,0.0,1.6,77,0.00,,,0.04,fowsr,2013-07-25 18:58:00,
2013-07-25 15:03:00,78.6,72.1,29.49,East,90,0.0,0.7,76,0.00,,,0.04,fowsr,2013-07-25 19:03:00,
2013-07-25 15:08:00,78.3,71.7,29.49,SE,135,0.0,0.7,76,0.00,,,0.04,fowsr,2013-07-25 19:08:00,
2013-07-25 15:13:00,78.3,72.0,29.50,SE,135,0.0,1.6,77,0.00,,,0.04,fowsr,2013-07-25 19:13:00,
2013-07-25 15:18:00,78.3,72.0,29.49,NW,315,0.0,0.7,77,0.00,,,0.04,fowsr,2013-07-25 19:18:00,
2013-07-25 15:23:00,78.3,72.0,29.49,NW,315,0.0,0.0,77,0.00,,,0.04,fowsr,2013-07-25 19:23:00,
2013-07-25 15:28:00,78.3,72.0,29.49,NW,315,0.0,0.7,77,0.00,,,0.04,fowsr,2013-07-25 19:28:00,
2013-07-25 15:33:00,78.3,71.7,29.49,SW,225,0.0,0.0,76,0.00,,,0.04,fowsr,2013-07-25 19:33:00,
2013-07-25 15:38:00,78.4,71.9,29.50,West,270,0.0,0.7,76,0.00,,,0.04,fowsr,2013-07-25 19:38:00,
2013-07-25 15:43:00,78.4,72.2,29.50,North,0,0.0,0.0,77,0.00,,,0.04,fowsr,2013-07-25 19:43:00,
2013-07-25 15:48:00,78.4,72.5,29.50,North,0,0.0,0.0,78,0.00,,,0.04,fowsr,2013-07-25 19:48:00,
2013-07-25 15:53:00,78.4,72.5,29.50,NE,45,0.0,0.0,78,0.00,,,0.04,fowsr,2013-07-25 19:53:00,
2013-07-25 15:58:00,78.4,72.2,29.50,West,270,0.0,0.7,77,0.00,,,0.04,fowsr,2013-07-25 19:58:00,
2013-07-25 16:03:00,78.3,72.0,29.50,West,270,0.0,0.0,77,0.00,,,0.04,fowsr,2013-07-25 20:03:00,
2013-07-25 16:08:00,77.9,71.7,29.50,West,270,0.0,0.0,77,0.00,,,0.04,fowsr,2013-07-25 20:08:00,
2013-07-25 16:13:00,77.9,72.3,29.50,SW,225,0.0,0.7,79,0.00,,,0.04,fowsr,2013-07-25 20:13:00,
2013-07-25 16:18:00,77.9,72.0,29.49,SW,225,0.0,0.0,78,0.00,,,0.04,fowsr,2013-07-25 20:18:00,
2013-07-25 16:23:00,77.9,72.0,29.50,SW,225,0.0,0.0,78,0.00,,,0.04,fowsr,2013-07-25 20:23:00,
2013-07-25 16:28:00,77.9,72.0,29.50,SW,225,0.0,0.0,78,0.00,,,0.04,fowsr,2013-07-25 20:28:00,
2013-07-25 16:33:00,78.1,71.9,29.50,NE,45,0.0,0.7,77,0.00,,,0.04,fowsr,2013-07-25 20:33:00,
2013-07-25 16:38:00,78.3,72.3,29.50,South,180,0.0,0.0,78,0.00,,,0.04,fowsr,2013-07-25 20:38:00,
2013-07-25 16:43:00,78.4,71.9,29.50,South,180,0.0,0.0,76,0.00,,,0.04,fowsr,2013-07-25 20:43:00,
2013-07-25 16:48:00,78.6,71.8,29.50,South,180,0.0,0.7,75,0.00,,,0.04,fowsr,2013-07-25 20:48:00,
2013-07-25 16:53:00,79.0,71.8,29.50,South,180,0.0,0.7,74,0.00,,,0.04,fowsr,2013-07-25 20:53:00,
2013-07-25 16:58:00,79.2,71.6,29.50,South,180,0.0,0.7,73,0.00,,,0.04,fowsr,2013-07-25 20:58:00,
2013-07-25 17:03:00,79.5,72.0,29.50,East,90,0.0,0.7,73,0.00,,,0.04,fowsr,2013-07-25 21:03:00,
2013-07-25 17:08:00,79.7,71.8,29.50,SE,135,0.0,1.6,72,0.00,,,0.04,fowsr,2013-07-25 21:08:00,
2013-07-25 17:13:00,79.9,71.7,29.50,East,90,0.0,0.0,71,0.00,,,0.04,fowsr,2013-07-25 21:13:00,
2013-07-25 17:18:00,79.9,72.0,29.50,East,90,0.0,0.0,72,0.00,,,0.04,fowsr,2013-07-25 21:18:00,
2013-07-25 17:23:00,79.9,72.0,29.50,NE,45,0.0,0.7,72,0.00,,,0.04,fowsr,2013-07-25 21:23:00,
2013-07-25 17:28:00,80.1,71.9,29.50,West,270,0.0,0.0,71,0.00,,,0.04,fowsr,2013-07-25 21:28:00,
2013-07-25 17:33:00,79.9,71.4,29.50,NW,315,0.0,0.0,70,0.00,,,0.04,fowsr,2013-07-25 21:33:00,
2013-07-25 17:38:00,79.9,71.7,29.50,NW,315,0.0,0.0,71,0.00,,,0.04,fowsr,2013-07-25 21:38:00,
2013-07-25 17:43:00,79.7,71.5,29.50,East,90,0.0,0.7,71,0.00,,,0.04,fowsr,2013-07-25 21:43:00,
2013-07-25 17:48:00,79.7,71.8,29.50,East,90,0.0,0.0,72,0.00,,,0.04,fowsr,2013-07-25 21:48:00,
2013-07-25 17:53:00,79.7,71.8,29.50,SE,135,0.0,2.2,72,0.00,,,0.04,fowsr,2013-07-25 21:53:00,
2013-07-25 17:58:00,79.5,71.7,29.50,SE,135,0.0,0.0,72,0.00,,,0.04,fowsr,2013-07-25 21:58:00,
2013-07-25 18:03:00,79.5,71.7,29.50,West,270,0.0,0.7,72,0.00,,,0.04,fowsr,2013-07-25 22:03:00,
2013-07-25 18:08:00,79.5,71.7,29.50,NE,45,0.0,0.0,72,0.00,,,0.04,fowsr,2013-07-25 22:08:00,
2013-07-25 18:13:00,79.5,71.7,29.49,NE,45,0.0,0.0,72,0.00,,,0.04,fowsr,2013-07-25 22:13:00,
2013-07-25 18:18:00,79.5,71.7,29.49,East,90,0.0,0.0,72,0.00,,,0.04,fowsr,2013-07-25 22:18:00,
2013-07-25 18:23:00,79.3,71.2,29.49,NW,315,0.0,0.0,71,0.00,,,0.04,fowsr,2013-07-25 22:23:00,
2013-07-25 18:28:00,79.3,71.2,29.49,NW,315,0.0,0.0,71,0.00,,,0.04,fowsr,2013-07-25 22:28:00,
2013-07-25 18:33:00,79.3,71.5,29.49,NW,315,0.0,1.6,72,0.00,,,0.04,fowsr,2013-07-25 22:33:00,
2013-07-25 18:38:00,79.3,71.2,29.49,NW,315,0.0,0.0,71,0.00,,,0.04,fowsr,2013-07-25 22:38:00,
2013-07-25 18:43:00,79.3,71.5,29.50,SW,225,0.0,0.0,72,0.00,,,0.04,fowsr,2013-07-25 22:43:00,
2013-07-25 18:48:00,79.3,71.5,29.49,NW,315,0.0,0.7,72,0.00,,,0.04,fowsr,2013-07-25 22:48:00,
2013-07-25 18:53:00,79.2,71.3,29.50,NW,315,0.0,0.0,72,0.00,,,0.04,fowsr,2013-07-25 22:53:00,
2013-07-25 18:58:00,79.2,71.3,29.50,NW,315,0.0,0.0,72,0.00,,,0.04,fowsr,2013-07-25 22:58:00,
2013-07-25 19:03:00,79.0,71.5,29.49,NW,315,0.0,0.0,73,0.00,,,0.04,fowsr,2013-07-25 23:03:00,
2013-07-25 19:08:00,78.8,71.3,29.50,SW,225,0.0,0.0,73,0.00,,,0.04,fowsr,2013-07-25 23:08:00,
2013-07-25 19:13:00,78.6,71.4,29.50,NW,315,0.0,0.0,74,0.00,,,0.04,fowsr,2013-07-25 23:13:00,
2013-07-25 19:18:00,78.4,71.3,29.50,NW,315,0.0,0.0,74,0.00,,,0.04,fowsr,2013-07-25 23:18:00,
2013-07-25 19:23:00,78.3,71.4,29.50,NW,315,0.0,0.0,75,0.00,,,0.04,fowsr,2013-07-25 23:23:00,
2013-07-25 19:28:00,78.1,70.9,29.51,NW,315,0.0,0.0,74,0.00,,,0.04,fowsr,2013-07-25 23:28:00,
2013-07-25 19:33:00,78.1,71.2,29.51,NW,315,0.0,0.0,75,0.00,,,0.04,fowsr,2013-07-25 23:33:00,
2013-07-25 19:38:00,77.9,71.4,29.51,NW,315,0.0,0.0,76,0.00,,,0.04,fowsr,2013-07-25 23:38:00,
2013-07-25 19:43:00,77.7,71.5,29.51,NW,315,0.0,0.0,77,0.00,,,0.04,fowsr,2013-07-25 23:43:00,
2013-07-25 19:48:00,77.5,71.6,29.51,NW,315,0.0,0.0,78,0.00,,,0.04,fowsr,2013-07-25 23:48:00,
2013-07-25 19:53:00,77.4,71.2,29.51,West,270,0.0,0.0,77,0.00,,,0.04,fowsr,2013-07-25 23:53:00,
2013-07-25 19:58:00,77.2,71.3,29.51,ENE,67,0.0,0.0,78,0.00,,,0.04,fowsr,2013-07-25 23:58:00,
2013-07-25 20:03:00,76.8,71.2,29.52,ENE,67,0.0,0.0,79,0.00,,,0.02,fowsr,2013-07-26 00:03:00,
2013-07-25 20:08:00,76.5,71.2,29.52,ENE,67,0.0,0.0,80,0.00,,,0.02,fowsr,2013-07-26 00:08:00,
2013-07-25 20:13:00,76.1,70.8,29.52,ENE,67,0.0,0.0,80,0.00,,,0.02,fowsr,2013-07-26 00:13:00,
2013-07-25 20:18:00,76.1,71.1,29.52,ENE,67,0.0,0.0,81,0.00,,,0.02,fowsr,2013-07-26 00:18:00,
2013-07-25 20:23:00,75.6,70.6,29.52,ENE,67,0.0,0.0,81,0.00,,,0.02,fowsr,2013-07-26 00:23:00,
2013-07-25 20:28:00,75.2,70.3,29.52,ENE,67,0.0,0.0,81,0.00,,,0.02,fowsr,2013-07-26 00:28:00,
2013-07-25 20:33:00,75.0,70.6,29.52,ENE,67,0.0,0.0,83,0.00,,,0.02,fowsr,2013-07-26 00:33:00,
2013-07-25 20:38:00,74.7,70.3,29.53,ENE,67,0.0,0.0,83,0.00,,,0.02,fowsr,2013-07-26 00:38:00,
2013-07-25 20:43:00,74.3,70.2,29.53,ENE,67,0.0,0.0,84,0.00,,,0.02,fowsr,2013-07-26 00:43:00,
2013-07-25 20:48:00,74.1,70.0,29.52,ENE,67,0.0,0.0,84,0.00,,,0.02,fowsr,2013-07-26 00:48:00,
2013-07-25 20:53:00,73.8,69.7,29.53,ENE,67,0.0,0.0,84,0.00,,,0.02,fowsr,2013-07-26 00:53:00,
2013-07-25 20:58:00,73.6,69.8,29.53,ENE,67,0.0,0.0,85,0.00,,,0.02,fowsr,2013-07-26 00:58:00,
2013-07-25 21:03:00,73.4,69.6,29.53,ENE,67,0.0,0.0,85,0.00,,,0.02,fowsr,2013-07-26 01:03:00,
2013-07-25 21:08:00,73.2,69.4,29.53,ENE,67,0.0,0.0,85,0.00,,,0.02,fowsr,2013-07-26 01:08:00,
2013-07-25 21:13:00,72.9,69.1,29.53,ENE,67,0.0,0.0,85,0.00,,,0.02,fowsr,2013-07-26 01:13:00,
2013-07-25 21:18:00,72.7,69.2,29.53,ENE,67,0.0,0.0,86,0.00,,,0.02,fowsr,2013-07-26 01:18:00,
2013-07-25 21:23:00,72.5,69.0,29.53,ENE,67,0.0,0.0,86,0.00,,,0.02,fowsr,2013-07-26 01:23:00,
2013-07-25 21:28:00,72.3,69.1,29.54,ENE,67,0.0,0.0,87,0.00,,,0.02,fowsr,2013-07-26 01:28:00,
2013-07-25 21:33:00,72.1,68.9,29.54,ENE,67,0.0,0.0,87,0.00,,,0.02,fowsr,2013-07-26 01:33:00,
2013-07-25 21:38:00,71.8,68.8,29.54,ENE,67,0.0,0.0,88,0.00,,,0.02,fowsr,2013-07-26 01:38:00,
2013-07-25 21:43:00,71.8,68.8,29.55,ENE,67,0.0,0.0,88,0.00,,,0.02,fowsr,2013-07-26 01:43:00,
2013-07-25 21:48:00,71.4,68.7,29.55,ENE,67,0.0,0.0,89,0.00,,,0.02,fowsr,2013-07-26 01:48:00,
2013-07-25 21:53:00,71.4,68.7,29.55,ENE,67,0.0,0.0,89,0.00,,,0.02,fowsr,2013-07-26 01:53:00,
2013-07-25 21:58:00,71.2,68.8,29.55,ENE,67,0.0,0.0,90,0.00,,,0.02,fowsr,2013-07-26 01:58:00,
2013-07-25 22:03:00,71.2,68.8,29.56,ENE,67,0.0,0.0,90,0.00,,,0.02,fowsr,2013-07-26 02:03:00,
2013-07-25 22:08:00,71.1,68.6,29.56,ENE,67,0.0,0.0,90,0.00,,,0.02,fowsr,2013-07-26 02:08:00,
2013-07-25 22:13:00,70.9,68.5,29.56,ENE,67,0.0,0.0,90,0.00,,,0.02,fowsr,2013-07-26 02:13:00,
2013-07-25 22:18:00,70.7,68.3,29.56,ENE,67,0.0,0.0,90,0.00,,,0.02,fowsr,2013-07-26 02:18:00,
2013-07-25 22:23:00,70.7,68.5,29.56,ENE,67,0.0,0.0,91,0.00,,,0.02,fowsr,2013-07-26 02:23:00,
2013-07-25 22:28:00,70.5,68.4,29.56,ENE,67,0.0,0.0,91,0.00,,,0.02,fowsr,2013-07-26 02:28:00,
2013-07-25 22:33:00,70.5,68.4,29.56,ENE,67,0.0,0.0,91,0.00,,,0.02,fowsr,2013-07-26 02:33:00,
2013-07-25 22:38:00,70.5,68.4,29.56,ENE,67,0.0,0.0,91,0.00,,,0.02,fowsr,2013-07-26 02:38:00,
2013-07-25 22:43:00,70.2,68.0,29.56,ENE,67,0.0,0.0,91,0.00,,,0.02,fowsr,2013-07-26 02:43:00,
2013-07-25 22:48:00,70.2,68.2,29.56,ENE,67,0.0,0.0,92,0.00,,,0.02,fowsr,2013-07-26 02:48:00,
2013-07-25 22:53:00,70.0,68.1,29.56,ENE,67,0.0,0.0,92,0.00,,,0.02,fowsr,2013-07-26 02:53:00,
2013-07-25 22:58:00,69.8,67.9,29.57,ENE,67,0.0,0.0,92,0.00,,,0.02,fowsr,2013-07-26 02:58:00,
2013-07-25 23:03:00,69.8,67.9,29.57,ENE,67,0.0,0.0,92,0.00,,,0.02,fowsr,2013-07-26 03:03:00,
2013-07-25 23:08:00,69.6,68.0,29.57,ENE,67,0.0,0.0,93,0.00,,,0.02,fowsr,2013-07-26 03:08:00,
2013-07-25 23:18:00,69.4,68.0,29.57,ENE,67,0.0,0.0,94,0.00,,,0.02,fowsr,2013-07-26 03:18:00,
2013-07-25 23:23:00,69.4,68.0,29.57,ENE,67,0.0,0.0,94,0.00,,,0.02,fowsr,2013-07-26 03:23:00,
2013-07-25 23:28:00,69.3,67.8,29.58,ENE,67,0.0,0.0,94,0.00,,,0.02,fowsr,2013-07-26 03:28:00,
2013-07-25 23:33:00,69.3,67.8,29.58,ENE,67,0.0,0.0,94,0.00,,,0.02,fowsr,2013-07-26 03:33:00,
2013-07-25 23:38:00,69.3,67.8,29.58,ENE,67,0.0,0.0,94,0.00,,,0.02,fowsr,2013-07-26 03:38:00,
2013-07-25 23:43:00,69.1,67.7,29.58,ENE,67,0.0,0.0,94,0.00,,,0.02,fowsr,2013-07-26 03:43:00,
2013-07-25 23:48:00,69.1,67.7,29.58,ENE,67,0.0,0.0,94,0.00,,,0.02,fowsr,2013-07-26 03:48:00,
2013-07-25 23:53:00,68.9,67.5,29.58,ENE,67,0.0,0.0,94,0.00,,,0.02,fowsr,2013-07-26 03:53:00,
2013-07-25 23:58:00,68.9,67.5,29.58,ENE,67,0.0,0.0,94,0.00,,,0.02,fowsr,2013-07-26 03:58:00,